Time,TemperatureF,DewpointF,PressureIn,WindDirection,WindDirectionDegrees,WindSpeedMPH,WindSpeedGustMPH,Humidity,HourlyPrecipIn,Conditions,Clouds,dailyrainin,SoftwareType,DateUTC
2013-08-06 00:00:00,53.4,34.2,22.63,North,5,0.0,0.0,48,0.00,,---,0.00,VWS V14.01,2013-08-06 07:00:00,
2013-08-06 00:20:00,53.6,34.4,22.63,North,5,0.0,0.0,48,0.00,,---,0.00,VWS V14.01,2013-08-06 07:20:00,
2013-08-06 00:40:00,53.2,34.1,22.63,North,5,0.0,0.0,48,0.00,,---,0.00,VWS V14.01,2013-08-06 07:40:00,
2013-08-06 02:00:00,51.6,33.1,22.63,North,5,0.0,0.0,49,0.00,,---,0.00,VWS V14.01,2013-08-06 09:00:00,
2013-08-06 03:40:00,49.6,31.3,22.63,North,5,0.0,0.0,49,0.00,,---,0.00,VWS V14.01,2013-08-06 10:40:00,
2013-08-06 04:00:00,49.1,30.8,22.63,North,5,0.0,0.0,49,0.00,,---,0.00,VWS V14.01,2013-08-06 11:00:00,
2013-08-06 04:20:00,49.3,31.0,22.63,North,5,0.0,0.0,49,0.00,,---,0.00,VWS V14.01,2013-08-06 11:20:00,
2013-08-06 04:40:00,49.1,30.8,22.63,North,5,0.0,0.0,49,0.00,,---,0.00,VWS V14.01,2013-08-06 11:40:00,
2013-08-06 05:00:00,48.4,28.6,22.63,North,5,0.0,0.0,46,0.00,,---,0.00,VWS V14.01,2013-08-06 12:00:00,
2013-08-06 05:20:00,48.9,29.1,22.63,North,5,0.0,0.0,46,0.00,,---,0.00,VWS V14.01,2013-08-06 12:20:00,
2013-08-06 05:40:00,48.0,29.8,22.63,North,5,0.0,0.0,49,0.00,,---,0.00,VWS V14.01,2013-08-06 12:40:00,
2013-08-06 06:00:00,48.9,29.1,22.63,North,5,0.0,0.0,46,0.00,,---,0.00,VWS V14.01,2013-08-06 13:00:00,
2013-08-06 06:20:00,48.7,30.5,22.63,North,5,0.0,0.0,49,0.00,,---,0.00,VWS V14.01,2013-08-06 13:20:00,
2013-08-06 06:40:00,50.7,32.3,22.63,North,5,0.0,0.0,49,0.00,,---,0.00,VWS V14.01,2013-08-06 13:40:00,
2013-08-06 07:00:00,53.1,33.9,22.63,NNE,12,0.0,2.7,48,0.00,,---,0.00,VWS V14.01,2013-08-06 14:00:00,
2013-08-06 07:20:00,55.4,35.5,22.63,WNW,284,0.0,3.1,47,0.00,,---,0.00,VWS V14.01,2013-08-06 14:20:00,
2013-08-06 07:40:00,58.1,38.0,22.63,NNW,343,0.0,2.7,47,0.00,,---,0.00,VWS V14.01,2013-08-06 14:40:00,
2013-08-06 08:00:00,61.5,40.6,22.63,NNW,344,3.1,3.1,46,0.00,,---,0.00,VWS V14.01,2013-08-06 15:00:00,
2013-08-06 08:20:00,66.0,41.0,22.63,North,9,0.0,4.0,40,0.00,,---,0.00,VWS V14.01,2013-08-06 15:20:00,
2013-08-06 08:40:00,69.6,44.2,22.63,North,10,0.0,5.4,40,0.00,,---,0.00,VWS V14.01,2013-08-06 15:40:00,
2013-08-06 09:00:00,73.9,46.8,22.63,East,88,3.6,6.3,38,0.00,,---,0.00,VWS V14.01,2013-08-06 16:00:00,
2013-08-06 09:20:00,75.2,47.9,22.63,SSW,203,2.2,6.3,38,0.00,,---,0.00,VWS V14.01,2013-08-06 16:20:00,
2013-08-06 09:40:00,77.4,49.8,22.63,SW,226,5.8,9.2,38,0.00,,---,0.00,VWS V14.01,2013-08-06 16:40:00,
2013-08-06 10:00:00,78.6,50.9,22.63,SW,220,3.6,11.4,38,0.00,,---,0.00,VWS V14.01,2013-08-06 17:00:00,
2013-08-06 10:20:00,80.1,51.5,22.63,SSW,207,4.0,11.9,37,0.00,,---,0.00,VWS V14.01,2013-08-06 17:20:00,
2013-08-06 10:40:00,81.0,52.3,22.63,SSE,157,4.0,10.5,37,0.00,,---,0.00,VWS V14.01,2013-08-06 17:40:00,
2013-08-06 11:00:00,81.7,52.9,22.63,SSW,208,4.0,8.7,37,0.00,,---,0.00,VWS V14.01,2013-08-06 18:00:00,
2013-08-06 11:20:00,82.9,53.3,22.63,South,191,3.1,12.3,36,0.00,,---,0.00,VWS V14.01,2013-08-06 18:20:00,
2013-08-06 11:40:00,83.5,53.8,22.63,SSW,208,2.7,9.6,36,0.00,,---,0.00,VWS V14.01,2013-08-06 18:40:00,
2013-08-06 12:00:00,83.8,54.1,22.63,SSW,205,5.4,10.5,36,0.00,,---,0.00,VWS V14.01,2013-08-06 19:00:00,
2013-08-06 12:20:00,83.5,53.8,22.63,South,191,5.4,8.3,36,0.00,,---,0.00,VWS V14.01,2013-08-06 19:20:00,
2013-08-06 12:40:00,84.9,55.0,22.63,SSE,166,3.1,9.2,36,0.00,,---,0.00,VWS V14.01,2013-08-06 19:40:00,
2013-08-06 13:00:00,84.6,54.7,22.63,SSW,198,3.1,10.1,36,0.00,,---,0.00,VWS V14.01,2013-08-06 20:00:00,
2013-08-06 13:20:00,88.2,57.1,22.63,SE,131,5.4,8.3,35,0.00,,---,0.00,VWS V14.01,2013-08-06 20:20:00,
2013-08-06 13:40:00,91.6,59.3,22.63,West,272,7.2,8.3,34,0.00,,---,0.00,VWS V14.01,2013-08-06 20:40:00,
2013-08-06 14:00:00,92.3,59.9,22.63,South,190,3.6,10.5,34,0.00,,---,0.00,VWS V14.01,2013-08-06 21:00:00,
2013-08-06 14:20:00,92.1,59.7,22.63,SW,216,3.6,11.0,34,0.00,,---,0.00,VWS V14.01,2013-08-06 21:20:00,
2013-08-06 14:40:00,91.9,59.6,22.63,SW,221,7.2,8.7,34,0.00,,---,0.00,VWS V14.01,2013-08-06 21:40:00,
2013-08-06 15:00:00,92.8,60.4,22.63,SSW,198,5.4,11.0,34,0.00,,---,0.00,VWS V14.01,2013-08-06 22:00:00,
2013-08-06 15:20:00,92.7,60.2,22.63,SSW,210,5.4,10.5,34,0.00,,---,0.00,VWS V14.01,2013-08-06 22:20:00,
2013-08-06 15:40:00,92.7,60.2,22.63,SW,234,2.7,12.8,34,0.00,,---,0.00,VWS V14.01,2013-08-06 22:40:00,
2013-08-06 16:00:00,90.7,59.3,22.63,South,182,11.0,11.4,35,0.00,,---,0.00,VWS V14.01,2013-08-06 23:00:00,
2013-08-06 16:20:00,92.7,60.2,22.63,South,170,2.7,11.0,34,0.00,,---,0.00,VWS V14.01,2013-08-06 23:20:00,
2013-08-06 16:40:00,89.1,57.9,22.63,ESE,112,4.0,10.1,35,0.00,,---,0.00,VWS V14.01,2013-08-06 23:40:00,
2013-08-06 17:00:00,86.2,56.1,22.63,South,179,5.8,12.8,36,0.00,,---,0.00,VWS V14.01,2013-08-07 00:00:00,
2013-08-06 17:20:00,87.3,57.1,22.63,WSW,241,2.7,12.8,36,0.00,,---,0.00,VWS V14.01,2013-08-07 00:20:00,
2013-08-06 17:40:00,78.6,50.9,22.63,SW,218,4.9,8.7,38,0.00,,---,0.00,VWS V14.01,2013-08-07 00:40:00,
2013-08-06 18:00:00,77.0,49.5,22.63,WSW,241,4.0,6.7,38,0.00,,---,0.00,VWS V14.01,2013-08-07 01:00:00,
2013-08-06 18:20:00,75.2,47.9,22.63,SSW,208,5.4,8.3,38,0.00,,---,0.00,VWS V14.01,2013-08-07 01:20:00,
2013-08-06 18:40:00,73.9,46.8,22.63,North,7,3.6,10.1,38,0.00,,---,0.00,VWS V14.01,2013-08-07 01:40:00,
2013-08-06 19:00:00,71.8,45.5,22.63,North,10,2.7,6.3,39,0.00,,---,0.00,VWS V14.01,2013-08-07 02:00:00,
2013-08-06 19:20:00,69.3,43.9,22.63,NNE,23,0.0,6.3,40,0.00,,---,0.00,VWS V14.01,2013-08-07 02:20:00,
2013-08-06 19:40:00,66.7,41.7,22.63,South,191,0.0,3.6,40,0.00,,---,0.00,VWS V14.01,2013-08-07 02:40:00,
2013-08-06 20:00:00,65.1,40.2,22.63,SW,229,0.0,4.0,40,0.00,,---,0.00,VWS V14.01,2013-08-07 03:00:00,
2013-08-06 20:20:00,62.6,38.6,22.63,West,271,0.0,4.0,41,0.00,,---,0.00,VWS V14.01,2013-08-07 03:20:00,
2013-08-06 20:40:00,60.1,39.8,22.63,West,270,0.0,0.0,47,0.00,,---,0.00,VWS V14.01,2013-08-07 03:40:00,
2013-08-06 21:00:00,59.2,39.0,22.63,NNW,348,0.0,2.2,47,0.00,,---,0.00,VWS V14.01,2013-08-07 04:00:00,
2013-08-06 21:20:00,57.6,37.5,22.63,NNW,344,0.0,2.7,47,0.00,,---,0.00,VWS V14.01,2013-08-07 04:20:00,
2013-08-06 21:40:00,57.9,37.8,22.63,North,353,0.0,3.1,47,0.00,,---,0.00,VWS V14.01,2013-08-07 04:40:00,
2013-08-06 22:00:00,57.2,37.2,22.63,North,353,0.0,0.0,47,0.00,,---,0.00,VWS V14.01,2013-08-07 05:00:00,
2013-08-06 22:20:00,56.8,36.8,22.63,North,357,0.0,3.1,47,0.00,,---,0.00,VWS V14.01,2013-08-07 05:20:00,
2013-08-06 22:40:00,54.5,35.2,22.63,North,350,0.0,0.0,48,0.00,,---,0.00,VWS V14.01,2013-08-07 05:40:00,
2013-08-06 23:00:00,52.9,33.7,22.63,North,350,0.0,0.0,48,0.00,,---,0.00,VWS V14.01,2013-08-07 06:00:00,
2013-08-06 23:20:00,52.0,32.9,22.63,North,350,0.0,0.0,48,0.00,,---,0.00,VWS V14.01,2013-08-07 06:20:00,
2013-08-06 23:40:00,51.1,32.6,22.63,North,350,0.0,0.0,49,0.00,,---,0.00,VWS V14.01,2013-08-07 06:40:00,